www.pogodaiklimat.ru

Погода и климат >> Архив погоды >> Россия >> Мурманская область >> Сосновец Остров


АРХИВ ПОГОДЫ на Сосновец Острове

Время (UTC), дата Ветер
(напр.,м/с)
 
Видим.   Явления Облачность Т
(С)
Тd
(С)
f
(%)
Тe
(С)
Тes
(С)
Комфортность P
(гПа)
Po
(гПа)
Тmin
(С)
Tmax
(С)
R
(мм)
R24
(мм)
S
(см)
06 9.01 В 6 20 км 10/10 300 м
[Sc]
-9.8 -11.0 91 -18 -18 1009.0 1006.7 -9.8
09 9.01 В 6 4000 м слаб. ливневой снег 10/10 300 м
[Cb cap]
-9.6 -10.8 91 -18 -18 1010.8 1008.5
12 9.01 В 6 4000 м слаб. ливневой снег 10/10 300 м
[Cb cap]
-10.3 -11.9 88 -19 -19 1012.2 1009.9
15 9.01 В 4 4000 м слаб. ливневой снег 10/10 300 м
[Cb cap]
-10.4 -11.6 91 -17 -17 1012.9 1010.5 -9.3 0.9
18 9.01 СВ 3 4000 м слаб. ливневой снег {метель} 10/10 300 м
[Cb cap]
-10.3 -11.5 91 -16 -16 1013.5 1011.2
21 9.01 СВ 3 4000 м слаб. ливневой снег {метель} 10/10 300 м
[Cb cap]
-9.5 -11.1 88 -15 -15 1014.3 1011.9
00 10.01 СВ 4 4000 м слаб. ливневой снег {метель} 10/10 300 м
[Cb cap]
-9.2 -10.7 89 -16 -16 1014.4 1012.1
03 10.01 СВ 3 20 км в посл. час ливневой снег 10/10 300 м
[Sc]
-9.1 -10.6 89 -15 -15 1014.3 1012.0 -10.5 0.6 22
06 10.01 С 1 20 км 10/10 300 м
[Sc]
-8.5 -9.6 92 -11 -11 1014.2 1011.9
09 10.01 З 5 20 км 10/10 300 м
[Sc]
-8.6 -9.8 91 -16 -16 1013.3 1011.0
12 10.01 З 8-11
{12}
20 км 10/10 300 м
[Sc]
-9.7 -10.9 91 -19 -19 1012.1 1009.8
15 10.01 ЮЗ 5
{12}
20 км 10/10 300 м
[Sc]
-6.6 -8.1 89 -14 -14 1008.2 1005.9 -6.6
18 10.01 ЮЗ 16-19
{21}
10 км сильный позёмок 10/10 300 м
[Sc]
-4.3 -7.1 81 -16 -16 1003.2 1001.0
21 10.01 ЮЗ 19-24
{24}
10 км сильный позёмок 10/10 300 м
[Sc]
-3.4 -5.6 85 -15 -15 997.1 994.9
00 11.01 Ю 20-25
{25}
10 км сильный позёмок 10/10 300 м
[Sc]
-4.0 -5.8 87 -16 -16 991.1 988.9
03 11.01 Ю 21-27
{28}
4000 м метель 10/10 300 м
[Sc]
-3.9 -4.9 93 -16 -16 983.5 981.3 -7.2 22
06 11.01 ЮЗ 19-25
{28}
1000 м метель 10/10 300 м
[Sc]
-3.2 -4.6 90 -15 -15 979.6 977.4
09 11.01 Ю 19-24
{26}
1000 м метель 10/10 300 м
[Sc]
-2.5 -3.5 93 -14 -14 977.3 975.2
12 11.01 Ю 18-21
{26}
4000 м метель {ливн. осадки} 10/10 300 м
[Sc]
-2.2 -3.6 90 -13 -13 975.6 973.4
15 11.01 Ю 16-20
{22}
4000 м слаб. ливневой снег {метель} 10/10 300 м
[Cb cap]
-2.6 -3.6 93 -13 -13 974.5 972.4 -2.2 0.4
18 11.01 Ю 15-19
{21}
4000 м слаб. снег 10/0 300 м
[As op]
-2.3 -3.6 91 -13 -13 974.0 971.8
21 11.01 Ю 15-17
{20}
4000 м слаб. снег {метель} 10/0 300 м
[As op]
-2.9 -4.1 91 -14 -14 973.3 971.1
00 12.01 Ю 14-18
{18}
4000 м слаб. снег {метель} 10/0 300 м
[As op]
-2.5 -3.6 92 -13 -13 972.2 970.1
03 12.01 Ю 14-17
{19}
4000 м слаб. снег {метель} 10/0 300 м
[As op]
-2.3 -3.7 90 -13 -13 971.6 969.5 -3.2 0.8 24
06 12.01 Ю 14
{18}
4000 м слаб. снег {метель} 10/0 300 м
[As op]
-2.7 -4.3 89 -13 -13 971.7 969.5
09 12.01 Ю 13
{17}
10 км позёмок {снег} 10/10 300 м
[Sc]
-3.3 -5.0 88 -14 -14 972.2 970.0
12 12.01 Ю 10-12
{16}
20 км {снег, метель} 10/10 600 м
[Sc]
-2.9 -3.9 93 -12 -12 972.5 970.4
15 12.01 Ю 8
{12}
20 км 10/10 600 м
[Sc]
-2.4 -3.2 94 -11 -11 972.8 970.7 -2.3 0.5
18 12.01 Ю 5
{11}
4000 м слаб. ливневой снег {метель} 10/10 300 м
[Cb cap]
-2.4 -3.1 95 -9 -9 972.8 970.6
21 12.01 СЗ 6 20 км {ливн. осадки} 4/4 600 м
[Sc]
-7.3 -8.4 92 -16 -16 973.1 970.9
00 13.01 СЗ 2 20 км {ливн. осадки} 3/3 600 м
[Sc]
-8.9 -9.9 92 -13 -13 973.5 971.3
03 13.01 СЗ 4 20 км ясно -7.6 -9.5 86 -14 -14 973.5 971.3 -9.4 0.4 26
06 13.01 СЗ 5 20 км 8/8 300 м
[Sc]
-7.2 -8.8 88 -15 -15 973.6 971.4
09 13.01 ЮЗ 2 20 км 10/0
[Ac und]
-7.0 -7.9 93 -12 -12 973.7 971.5
12 13.01 ЮЗ 6 20 км 10/4 300 м
[Sc Ac und]
-6.7 -8.1 90 -15 -15 973.9 971.7
15 13.01 З 4 20 км 10/0
[Ac und]
-5.8 -7.9 85 -12 -12 974.6 972.4 -5.6
18 13.01 З 3 20 км 10/0
[Ac und]
-5.7 -7.8 85 -11 -11 975.6 973.4
21 13.01 З 4 20 км 10/0
[Ac und]
-5.3 -7.1 87 -12 -12 976.9 974.7
00 14.01 З 5 20 км 10/0
[Ac und]
-7.4 -9.1 88 -15 -15 978.5 976.2
03 14.01 З 4 20 км 10/0
[Ac und]
-5.9 -8.2 84 -12 -12 980.1 977.9 -8.1 26
06 14.01 СЗ 4 н/о н/о -8.3 -9.9 88 -15 -15 982.0 979.8 -8.6
09 14.01 СЗ 6 20 км 8/3 600 м
[Sc Ac trans]
-7.9 -8.9 93 -16 -16 984.0 981.8
12 14.01 З 5 20 км 8/0
[Ac trans Ci fib]
-5.3 -6.6 91 -13 -13 986.3 984.0
15 14.01 З 6 20 км 8/0
[Ac trans]
-4.9 -6.2 91 -13 -13 987.8 985.6 -4.7
18 14.01 З 4 20 км 10/8 600 м
[Sc Ac und]
-4.9 -6.9 86 -11 -11 989.2 987.0
21 14.01 Ю 4 20 км 10/4 600 м
[Sc Ac und]
-4.9 -7.0 85 -11 -11 990.0 987.8
00 15.01 В 3 20 км 10/8 600 м
[Sc Ac und]
-5.6 -8.2 82 -11 -11 990.6 988.3
03 15.01 В 2 20 км 10/8 600 м
[Sc Ac und]
-6.0 -8.3 84 -10 -10 990.9 988.7 -6.1 26
06 15.01 В 3 20 км 10/8 600 м
[Sc Ac As]
-5.7 -7.6 86 -11 -11 991.1 988.9 -6.0
09 15.01 В 4 20 км 10/9 600 м
[Sc Ac As]
-5.6 -7.4 87 -12 -12 991.5 989.3
12 15.01 В 4 4000 м слаб. ливневой снег 10/10 300 м
[Cb cap]
-5.2 -7.1 86 -12 -12 991.6 989.3
15 15.01 В 5 4000 м слаб. ливневой снег 10/10 300 м
[Cb cap]
-5.2 -6.9 88 -12 -12 992.3 990.0 -5.1 0.4
18 15.01 В 5 4000 м слаб. ливневой снег 10/10 300 м
[Cb cap]
-5.4 -7.1 88 -13 -13 992.4 990.1
21 15.01 В 6 20 км {ливн. осадки} 9/9 600 м
[Sc]
-5.5 -7.0 89 -13 -13 992.9 990.7
00 16.01 СВ 7 20 км {ливн. осадки} 9/9 600 м
[Sc]
+5.2 +6.5 100 -1 -1 993.1 990.8

 

Местоположение метеостанции Сосновец Остров (Мурманская область, Россия): широта 66.48 долгота 40.68 высота над уровнем моря 18 м.

В архиве по умолчанию представлена погода на Сосновец Острове за последнюю неделю. Архивные данные за месяц целиком и за предыдущие месяцы, начиная с января 2011 года, Вы можете получить, выбрав интересующий диапазон дат из раскрывающегося списка и нажав кнопку "Ввод!".


*Определитесь, кто Вы:
робот инопланетянин человек

Внимание! Время в таблицах - всемирное. Для получения местного времени необходимо прибавить поправку, которая равна 3 ч.

Смотрите также архив погоды в соседних городах и на ближайших метеорологических станциях:

Погода в Пялице (Мурманская область, Россия) (61 км)
Погода на Моржовец Острове (Архангельская область, Россия) (84 км)
Погода в Каневке (Мурманская область, Россия) (85 км)
Погода в Абрамовском маяке (Архангельская область, Россия) (115 км)
Погода в Зимнегорском Маяке (Архангельская область, Россия) (121 км)
Погода в Кепино (Архангельская область, Россия) (133 км)
Погода на Чаваньга реке (Мурманская область, Россия) (138 км)
Погода в Мезене (Архангельская область, Россия) (173 км)
Погода в Неси (Ненецкий АО, Россия) (178 км)
Погода в Иоканьге (Мурманская область, Россия) (182 км)

Пояснения к столбцам:

Ветер - указаны скорость ветра в м/с - средняя за 10 мин, порывы в срок и между сроками (в фигурных скобках) и направление, откуда дует ветер: С - северный, СВ - северо-восточный, В - восточный, ЮВ - юго-восточный, Ю - южный, ЮЗ - юго-западный, З - западный, СЗ - северо-западный.
Видимость - горизонтальная дальность видимости в метрах или километрах. При видимости от 1 до 10 км при отсутствии осадков обычно наблюдается дымка, при ухудшении видимости до 1 км и менее - туман. В сухую погоду видимость может ухудшаться дымом, пылью или мглою.
Явления - указаны атмосферные явления, наблюдавшиеся в срок или в последний час перед сроком; фигурными скобками обозначены явления, наблюдавшиеся между сроками (за 1-3 часа до срока); квадратными скобками обозначены град или гололедные отложения с указанием их диаметра в мм.
Облачность - указаны через наклонную черту общая и нижняя облачность в баллах и высота нижней границы облаков в метрах; квадратными скобками обозначены формы облаков: Ci - перистые, Cs - перисто-слоистые, Cc - перисто-кучевые, Ac - высококучевые, As - высокослоистые, Sc - слоисто-кучевые, Ns - слоисто-дождевые, Cu - кучевые, Cb - кучево-дождевые. Подробнее классификацию облаков см. в Атласе облаков (PDF).
T - Температура воздуха - температура, измеренная на высоте 2 м над землей.
Td - Температура точки росы - температура, при понижении до которой содержащийся в воздухе водяной пар достигнет насыщения.
f - Относительная влажность воздуха - влажноcть воздуха, измеренная на высоте 2 м над землей.
Te - Эффективная температура - температура, которую ощущает одетый по сезону человек в тени. Характеристика душности погоды. При расчете учитывается влияние влажности воздуха и скорости ветра на теплоощущения человека.
Tes - Эффективная температура на солнце - температура, которую ощущает человек, с поправкой на солнечный нагрев. Характеристика знойности погоды. Зависит от высоты солнца над горизонтом, облачности и скорости ветра. Ночью, в пасмурную погоду, а также при ветре 12 м/с и более поправка равна нулю.
P - Атмосферное давление - приведенное к уровню моря атмосферное давление.
Po - Атмосферное давление - измеренное на уровне метеостанции атмосферное давление.
Tmin - Минимальная температура - минимум температуры воздуха на высоте 2 м над землей.
Tmax - Максимальная температура - максимум температуры воздуха на высоте 2 м над землей.
R - Количество осадков - Количество выпавших осадков за период времени, мм. При наведении курсора мыши на число - период времени, за который выпало указанное количество осадков.
R24 - Количество осадков - Количество выпавших осадков за 24 часа, мм.
S - Снежный покров - Высота снежного покрова, см. При наведении курсора мыши на число - состояние снежного покрова и степень покрытия местности в баллах.